Location: Unspecified
(0.0000°N, 0.0000°E)
Time: 17:05:02
(UTC+02:00)

Meteor PRIRODA - Visible Passes

Search period start: 23 July 2016 00:00
Search period end: 02 August 2016 00:00
Orbit: 495 x 518 km, 97.4° (Epoch: 22 July)

Date Brightness Start Highest point End Pass type
(mag) Time Alt. Az. Time Alt. Az. Time Alt. Az.
23 Jul 5.8 06:05:44 10° NNE 06:06:57 20° NNE 06:06:57 20° NNE visible
24 Jul 6.5 05:48:31 10° NNE 05:49:16 15° NE 05:49:16 15° NE visible
26 Jul 5.9 06:48:04 10° NNW 06:48:45 13° NW 06:48:45 13° NW visible
27 Jul 5.7 06:29:55 10° N 06:31:04 18° NNW 06:31:04 18° NNW visible
28 Jul 5.8 06:12:14 10° N 06:13:24 19° N 06:13:24 19° N visible
29 Jul 6.3 05:54:52 10° NNE 05:55:43 16° NNE 05:55:43 16° NNE visible
30 Jul 6.9 05:37:54 10° NE 05:38:02 11° NE 05:38:02 11° NE visible
31 Jul 6.0 06:55:01 10° NW 06:55:10 11° NW 06:55:10 11° NW visible
01 Aug 5.8 06:36:35 10° NNW 06:37:29 15° NNW 06:37:29 15° NNW visible
